Location: Barza
(46.1000°N, 22.8500°E)
Time: 16:57:49
(UTC+00:00)

Daily predictions for brighter satellites

Satellite Brightness Start Highest point End
(mag) Time Altitude Azimuth Time Altitude Azimuth Time Altitude Azimuth
COSMO-SKYMED 1 4.3 15:22:41 10° ENE 15:24:51 14° E 15:27:03 10° ESE
Cosmos 1814 Rocket 4.1 15:20:09 10° NNW 15:25:17 55° ENE 15:30:26 10° SE
NOSS 3-1 (A) 4.5 15:22:17 10° SSE 15:25:25 17° ESE 15:28:50 10° ENE
Cosmos 1709 Rocket 4.1 15:19:17 10° N 15:25:26 84° W 15:31:31 10° S
Cosmos 1536 Rocket 4.0 15:26:58 10° N 15:31:07 40° ENE 15:35:16 10° SSE
Cosmos 968 Rocket 3.5 15:26:51 10° SSW 15:31:56 82° ESE 15:37:05 10° NNE
Cosmos 1943 4.4 15:28:59 10° N 15:33:23 22° NE 15:37:44 10° E
CORIOLIS 4.1 15:31:17 10° SSE 15:36:34 67° ENE 15:41:53 10° N
CZ-2D R/B 3.5 15:39:41 10° S 15:43:33 75° WSW 15:47:25 10° NNW
Cosmos 2263 Rocket 2.6 15:40:20 10° S 15:45:40 43° ESE 15:51:02 10° NE
Tiangong -0.5 15:48:52 10° SW 15:51:37 26° SSE 15:54:14 11° ESE
CZ-2D R/B 4.4 15:48:18 10° S 15:51:37 43° W 15:54:59 10° NNW
AQUARIUS 4.1 15:47:39 10° SSE 15:52:00 61° ENE 15:56:24 10° N
Lacrosse 4 Rocket 2.7 15:48:37 10° SSE 15:52:04 24° ESE 15:54:51 13° ENE
ATLAS 5 CENTAUR R/B 3.6 15:51:22 10° N 15:53:41 14° NNE 15:55:34 12° NE
USA 276 2.1 15:52:02 10° WNW 15:53:57 40° SSW 15:55:47 10° SE
ADEOS Rocket 4.0 15:47:23 10° S 15:55:06 70° WSW 16:02:49 10° NNW
Spot 4 Rocket 4.1 15:54:21 10° SSE 15:59:27 82° WSW 16:04:36 10° NNW
BlueWalker 3 3.1 15:56:15 10° NW 15:59:30 28° N 16:01:42 16° ENE
JB-3 4.3 15:58:10 10° N 16:01:54 76° WNW 16:05:39 10° SSW
Cosmos 2098 Rocket 3.7 15:56:42 10° S 16:02:25 57° E 16:07:20 10° NNE
SMAP 3.3 15:58:19 10° S 16:02:57 74° WSW 16:07:37 10° NNW
Cosmos 1570 Rocket 4.3 15:58:14 10° N 16:03:20 44° ENE 16:08:24 10° SE
Cosmos 2082 4.0 15:58:18 10° S 16:03:46 49° ESE 16:09:15 10° NE
Cosmos 158 Rocket 4.3 15:58:43 10° NNW 16:03:56 48° ENE 16:09:03 10° SE
Cosmos 2297 Rocket 3.6 15:59:20 10° WSW 16:04:29 35° NW 16:09:40 10° NNE
Nadezhda 1 Rocket 4.3 15:58:37 10° SSE 16:04:32 43° E 16:10:23 10° NNE
Cosmos 2227 Rocket 2.7 15:59:19 10° SW 16:04:55 63° WNW 16:10:34 10° NNE
ACS3 Solar Sail 3.2 16:04:17 15° ENE 16:06:06 17° NE 16:09:54 10° NNE
Cosmos 2084 3.5 16:05:15 10° NW 16:09:03 65° SW 16:12:49 10° SSE
Cosmos 1295 Rocket 4.5 16:03:12 10° N 16:09:34 71° E 16:15:52 10° SSE
Sich 1 Rocket 3.5 16:05:53 10° S 16:10:15 88° ESE 16:14:42 10° N
SKYMED 2 4.0 16:09:12 10° NNE 16:13:19 40° E 16:17:24 10° SSE
CZ-4B R/B 4.3 16:11:08 10° SE 16:14:45 38° ENE 16:18:30 10° N
CZ-2C R/B 3.5 16:12:23 12° ESE 16:15:00 26° ENE 16:18:04 10° N
Cosmos 371 Rocket 3.3 16:11:35 10° S 16:16:16 61° ESE 16:21:00 10° NNE
Okean 2 Rocket 3.3 16:11:51 10° SSW 16:16:20 76° W 16:20:51 10° N
Cosmos 1455 Rocket 3.7 16:14:18 10° SSE 16:18:17 34° E 16:22:07 11° NNE
Cosmos 2074 Rocket 4.0 16:13:01 10° N 16:19:22 88° E 16:25:40 10° S
USA 307 2.5 16:17:28 10° WSW 16:20:48 69° NNW 16:22:47 25° NE
Cosmos 44 Rocket 3.3 16:16:09 10° SSW 16:21:02 67° ESE 16:24:33 18° NE
SL-16 R/B 2.5 16:16:18 10° NNW 16:21:58 71° WSW 16:27:36 10° SSE
Cosmos 1869 3.9 16:19:10 10° SSE 16:22:23 28° E 16:22:38 28° E
SJ 16-02 3.3 16:21:52 10° WSW 16:25:33 27° WNW 16:29:16 10° N
IGS 5A 3.4 16:24:35 10° S 16:28:37 81° WSW 16:32:41 10° NNW
Cosmos 2184 Rocket 4.1 16:22:34 10° N 16:28:51 83° W 16:35:02 10° S
Cosmos 1606 2.5 16:25:46 10° S 16:29:05 50° E 16:30:36 27° NNE
SPOT 1/Viking Rocket 4.4 16:29:28 26° ENE 16:30:11 26° ENE 16:34:27 10° N
Cosmos 2341 Rocket 4.5 16:27:19 10° N 16:33:13 38° ENE 16:39:07 10° SE
YAOGAN 1 2.9 16:30:48 10° SE 16:34:48 41° ENE 16:38:50 10° N
Cosmos 2208 Rocket 4.0 16:30:20 10° NNW 16:35:35 61° ENE 16:40:43 10° SE
Cosmos 2219 3.6 16:33:37 10° SW 16:39:21 67° WNW 16:45:05 10° NNE
Cosmos 2058 2.7 16:36:17 10° N 16:40:16 66° E 16:44:12 10° SSE
Cosmos 1603 4.2 16:35:29 10° NNW 16:40:43 37° NE 16:42:20 31° E
NOAA 6 3.9 16:36:05 10° SSE 16:41:10 65° ENE 16:46:17 10° N
Landsat 7 3.7 16:36:42 10° SSE 16:41:20 66° ENE 16:46:01 10° N
Okean 1 Rocket 3.6 16:38:13 10° SSW 16:42:33 59° WNW 16:46:58 10° N
Cosmos 1844 Rocket 3.7 16:38:37 10° SSE 16:42:38 26° ESE 16:42:38 26° ESE
MOS 1-B Rocket 3.8 16:38:01 10° SSE 16:44:06 68° ENE 16:49:43 10° N
Cosmos 1610 Rocket 4.4 16:38:02 10° N 16:44:13 84° E 16:50:21 10° S
Cosmos 2218 Rocket 4.4 16:38:32 10° N 16:44:15 36° ENE 16:47:44 21° SE
CZ-4 R/B 4.5 16:42:05 10° S 16:46:06 76° WSW 16:50:10 10° NNW
ISS -2.4 16:45:29 10° SSW 16:47:56 28° SSE 16:47:56 28° SSE
USA 305 4.0 16:46:44 10° WNW 16:50:07 27° NNW 16:50:59 25° N
Cosmos 304 Rocket 3.9 16:46:22 10° SSW 16:51:06 72° WNW 16:55:00 15° NNE
Cosmos 2327 Rocket 4.4 16:45:51 10° N 16:52:16 75° E 16:58:40 10° SSE
Meteor 1-31 Rocket 2.7 16:49:34 10° S 16:53:14 76° W 16:56:57 10° NNW
Meteor 2-1 Rocket 4.3 16:47:36 10° S 16:53:25 59° E 16:59:11 10° NNE
CENTAUR R/B 3.9 16:51:35 10° NNW 16:58:31 33° NNE 17:00:57 29° ENE
YAOGAN 11 4.0 16:56:20 30° NNE 16:58:33 69° ESE 17:03:01 10° S
Cosmos 1892 Rocket 3.5 16:54:13 10° N 16:58:34 81° W 17:02:52 10° S
GEOS 3 Rocket 3.5 16:58:18 39° NE 17:00:13 72° SE 17:05:20 10° SSW
Cosmos 1486 Rocket 3.9 16:55:40 10° S 17:00:49 66° ESE 17:02:40 39° NE
Cosmos 1503 Rocket 4.4 16:55:56 10° S 17:00:41 43° ESE 17:00:41 43° ESE
Cosmos 773 Rocket 3.9 16:56:06 10° NNW 17:01:11 61° ENE 17:02:34 44° ESE
Cosmos 1932 4.4 16:54:54 10° NW 17:01:12 90° ENE 17:06:02 18° SE
COSMO-SKYMED 1 2.9 16:57:09 10° N 17:01:28 64° WNW 17:05:45 10° SSW
USA 234 3.2 17:01:21 35° ENE 17:04:19 71° SE 17:10:49 10° SW
Cosmos 836 Rocket 4.4 17:00:01 10° NNW 17:05:14 84° WSW 17:10:25 10° SSE
ATLAS CENTAUR R/B 3.8 17:03:50 10° NW 17:05:36 13° NNW 17:05:41 13° NNW
CZ-4C R/B 3.4 16:58:26 10° NW 17:05:39 66° WSW 17:14:18 10° SSE
NOSS 3-1 (C) 4.1 17:01:56 10° WSW 17:06:42 42° NW 17:10:19 20° NNE
ATLAS 3B R/B 2.8 17:00:56 10° SSW 17:08:03 68° ESE 17:11:43 33° NE
SL-8 Rocket 3.9 17:04:18 10° N 17:10:38 66° E 17:16:53 10° SSE
NOSS 3-1 (A) 3.2 17:10:24 10° SW 17:15:15 70° NW 17:17:22 38° NNE
Cosmos 1943 3.3 17:12:20 10° NNW 17:18:03 76° WSW 17:22:10 19° SSE
IRIDIUM 104 4.4 17:13:26 10° S 17:18:38 75° W 17:23:52 10° N
CBERS 1 LM4 rocket 4.3 17:18:54 70° ENE 17:18:55 70° ENE 17:23:53 10° N
CZ-3B R/B 3.9 16:55:25 10° WNW 17:19:59 86° SW 17:22:57 38° SE
ADEOS 4.5 17:25:50 35° N 17:25:50 35° N 17:28:58 10° N
USA 281 3.1 17:22:06 30° NNE 17:25:42 79° ESE 17:32:16 10° SSW
Tiangong 0.4 17:25:11 10° WSW 17:26:31 20° SW 17:26:31 20° SW
Cosmos 2263 Rocket 3.6 17:24:32 10° WSW 17:29:41 34° NW 17:34:05 14° N
Lacrosse 4 Rocket 2.5 17:25:55 10° WSW 17:29:59 40° NW 17:30:39 38° NNW
BlueWalker 3 3.9 17:34:12 10° NW 17:35:49 24° NW 17:35:49 24° NW
ATLAS 5 CENTAUR R/B 3.0 17:33:23 10° NNW 17:35:59 32° N 17:35:59 32° N
Cosmos 2227 4.2 17:34:30 10° SSW 17:40:06 77° WNW 17:40:45 68° N
Meteor 2-3 Rocket 3.9 17:39:16 10° NNW 17:44:50 67° W 17:47:33 31° S
ACS3 Solar Sail 1.7 17:49:13 80° NNE 17:49:13 80° NNE 17:55:14 10° N
Cosmos 1844 Rocket 4.2 18:21:16 10° SW 18:24:20 31° WSW 18:24:20 31° WSW
USA 234 4.2 18:48:42 42° WNW 18:48:42 42° WNW 18:53:25 10° W
CENTAUR R/B 3.7 18:42:06 10° NW 18:48:05 55° NNW 18:48:05 55° NNW
ATLAS 3B R/B 3.9 18:52:29 10° WSW 18:58:59 39° NW 18:58:59 39° NW
ACS3 Solar Sail 4.2 19:34:11 17° WNW 19:34:11 17° WNW 19:37:25 10° NW
